Regional Weather Roundup
Issued by NWS

Home | Current Version | Previous Version | Text Only | Print | Product List | Glossary Off
Versions: 1 2 3 4 5 6 7 8 9 10 11 12 13 14 15 16 17 18 19 20 21 22 23 24 25 26 27 28 29 30 31 32 33 34 35 36 37 38 39 40 41 42 43 44 45 46 47 48 49 50

000
ASUS45 KCYS 041410
RWRWY

WYOMING REGIONAL WEATHER ROUNDUP
NATIONAL WEATHER SERVICE CHEYENNE WY
800 AM MDT TUE AUG 04 2015

NOTE:  "FAIR" INDICATES FEW OR NO CLOUDS BELOW 12,000 FEET
WITH NO SIGNIFICANT WEATHER AND/OR OBSTRUCTIONS TO VISIBILITY.

WYZ001-041500-
YELLOWSTONE NATIONAL PARK

CITY           SKY/WX    TMP DP  RH WIND       PRES   REMARKS
LK YELLOWSTONE   N/A     51  49  92 CALM      30.29R
W YELLOWSTONE  NOT AVBL

$$
WYZ002>013-054>058-071-098>099-041500-
NORTHERN WYOMING

CITY           SKY/WX    TMP DP  RH WIND       PRES   REMARKS
JACKSON        CLOUDY    54  52  94 CALM      30.21R
CODY           CLOUDY    63  54  72 N5        30.04R
GREYBULL       PTSUNNY   67  49  52 N7        29.97R
WORLAND        CLOUDY    64  54  69 N3        29.98R
SHERIDAN       FAIR      67  51  56 CALM      29.95S
BUFFALO        PTSUNNY   69  49  48 N3        30.01R
GILLETTE       FAIR      66  57  72 SE8       29.98S
HULETT         FAIR      64  55  72 CALM      30.00S
NEWCASTLE      FAIR      63  54  72 S5        30.02R

$$
WYZ014>020-022>026-101>103-041500-
CENTRAL WYOMING

CITY           SKY/WX    TMP DP  RH WIND       PRES   REMARKS
BIG PINEY      PTSUNNY   56  50  80 N7        30.23R
PINEDALE       PTSUNNY   57  50  77 NW17G25   30.21S
DUBOIS         PTSUNNY   57  45  62 W22G30    30.19R
LANDER         CLOUDY    59  54  83 NW5       30.06R
RIVERTON       CLOUDY    62  55  77 SW5       30.07R
CASPER         CLOUDY    63  54  72 SW10      30.05R
DOUGLAS        CLOUDY    64  51  62 NW3       30.05R

$$
WYZ021-027>030-104>119-041500-
SOUTHERN WYOMING

CITY           SKY/WX    TMP DP  RH WIND       PRES   REMARKS
EVANSTON       FAIR      50  47  89 S6        30.27R
KEMMERER       FAIR      52  50  93 W8        30.28R
FORT BRIDGER   SUNNY     59  50  72 W9        30.29R
ROCK SPRINGS   FAIR      55  48  77 SW20      30.21R
DIXON          FAIR      58  47  67 W8        30.24R
RAWLINS        CLOUDY    56  49  77 SW22G30   30.17R
SARATOGA       CLOUDY    57  46  67 W15G22    30.21R
LARAMIE        LGT RAIN  58  48  69 W9        30.18S
CHEYENNE       CLOUDY    63  48  58 VRB3      30.12R
TORRINGTON     PTSUNNY   63  52  67 W5        30.00S
PINE BLUFFS    PTSUNNY   59  52  77 CALM      30.08S

$$


USA.gov is the U.S. government's official web portal to all federal, state and local government web resources and services.